Location: Emblem
(62.4273°N, 6.4710°E)
Time: 07:44:00
(UTC+02:00)

Transit 2A - Pass Details

Date: 09 March 2024
Orbit: 596 x 956 km, 66.7° (Epoch: 24 April)

Event Time Altitude Azimuth Distance (km) Brightness Sun altitude
Rises 20:06:00 0° 257° (WSW) 2,854 10.1 -12.9°
Reaches altitude 10° 20:08:13 10° 261° (W) 1,970 9.2 -13.2°
Maximum altitude 20:12:35 60° 342° (NNW) 734 6.1 -13.7°
Enters shadow 20:17:02 11° 62° (ENE) 2,024 7.8 -14.1°
